Weather History for Langdon, ND

Change the Weather History Date:

Monday, January 13, 2014

  Actual Average (KDVL) Record (KDVL)
Temperature  
Mean Temperature 16 °F -  
Max Temperature 23 °F 17 °F 43 °F (1987)
Min Temperature 8 °F 0 °F -28 °F (1977)
Degree Days  
Heating Degree Days 50    
Moisture  
Dew Point 9 °F    
Average Humidity 78    
Maximum Humidity 86    
Minimum Humidity 62    
Precipitation  
Precipitation 0.47 in - - ()
Sea Level Pressure  
Sea Level Pressure 29.54 in    
Wind  
Wind Speed 12 mph (NNW)    
Max Wind Speed 21 mph    
Max Gust Speed 28 mph    
Visibility 9 miles    
Events Snow    
Averages and records for this station are not official NWS values.
T = Trace of Precipitation, MM = Missing Value Source: NWS Daily Summary

Daily Weather History Graph

Daily Weather History Graph

Search for Another Location

Airport:

Trip Planner

Search our weather history database for the weather conditions in past years. The results will help you decide how hot, cold, wet, or windy it might be!

Date:

Astronomy

Jan. 13, 2014 Rise Set
Actual Time 8:22 AM CST 5:02 PM CST
Civil Twilight 7:46 AM CST 5:38 PM CST
Nautical Twilight 7:07 AM CST 6:17 PM CST
Astronomical Twilight 6:29 AM CST 6:55 PM CST
Moon 3:20 PM CST (1/13) 6:11 AM CST (1/13)
Length of Visible Light 9h 51m
Length of Day
8h 39m
Waxing Gibbous, 95% of the Moon is Illuminated
Jan 13
Waxing Gibbous
Jan 15
Full
Jan 23
Last Quarter
Jan 30
New
Feb 6
First Quarter

Hourly Weather History & Observations

Time (CST) Temp. Windchill Dew Point Humidity Pressure Visibility Wind Dir Wind Speed Gust Speed Precip Events Conditions
12:15 AM 19.4 °F 7.2 °F 15.8 °F 86% 29.52 in 10.0 mi West 11.5 mph - N/A   Overcast
12:35 AM 21.2 °F 8.3 °F 15.8 °F 80% 29.52 in 10.0 mi West 13.8 mph - N/A   Overcast
12:55 AM 21.2 °F 8.3 °F 15.8 °F 80% 29.52 in 10.0 mi West 13.8 mph - N/A   Overcast
1:15 AM 21.2 °F 7.3 °F 15.8 °F 80% 29.52 in 10.0 mi West 16.1 mph - N/A   Overcast
1:35 AM 21.2 °F 7.3 °F 15.8 °F 80% 29.51 in 10.0 mi WNW 16.1 mph - N/A   Overcast
1:55 AM 21.2 °F 8.3 °F 15.8 °F 80% 29.52 in 10.0 mi WNW 13.8 mph - N/A   Overcast
2:15 AM 23.0 °F 8.0 °F 15.8 °F 74% 29.53 in 10.0 mi WNW 20.7 mph 27.6 mph N/A Snow Light Snow
2:35 AM 21.2 °F 6.0 °F 15.8 °F 80% 29.54 in 10.0 mi WNW 19.6 mph 26.5 mph N/A   Overcast
2:55 AM 21.2 °F 5.6 °F 15.8 °F 80% 29.55 in 10.0 mi WNW 20.7 mph 27.6 mph N/A Snow Light Snow
3:15 AM 21.2 °F 6.0 °F 15.8 °F 80% 29.54 in 7.0 mi WNW 19.6 mph 25.3 mph N/A Snow Light Snow
3:35 AM 19.4 °F 3.6 °F 15.8 °F 86% 29.54 in 2.5 mi WNW 19.6 mph - 0.05 in Snow Light Snow
3:55 AM 19.4 °F 4.5 °F 15.8 °F 86% 29.54 in 3.0 mi NW 17.3 mph - 0.12 in Snow Light Snow
4:15 AM 19.4 °F 4.5 °F 14.0 °F 80% 29.55 in 4.0 mi NW 17.3 mph - 0.01 in Snow Light Snow
4:35 AM 17.6 °F 1.3 °F 14.0 °F 86% 29.55 in 4.0 mi NW 19.6 mph - 0.02 in Snow Light Snow
4:55 AM 17.6 °F 1.7 °F 10.4 °F 73% 29.56 in 2.5 mi NW 18.4 mph - 0.03 in Snow Light Snow
5:15 AM 15.8 °F 0.3 °F 10.4 °F 79% 29.56 in 10.0 mi NNW 16.1 mph - N/A Snow Light Snow
5:35 AM 15.8 °F -1.5 °F 8.6 °F 73% 29.56 in 10.0 mi NW 20.7 mph - N/A Snow Light Snow
5:55 AM 14.0 °F -2.5 °F 8.6 °F 79% 29.57 in 10.0 mi NNW 17.3 mph 24.2 mph N/A Snow Light Snow
6:15 AM 14.0 °F -0.2 °F 6.8 °F 73% 29.58 in 10.0 mi NNW 12.7 mph - N/A   Overcast
6:35 AM 12.2 °F -2.5 °F 6.8 °F 79% 29.58 in 10.0 mi NNW 12.7 mph - N/A   Overcast
6:55 AM 10.4 °F -4.8 °F 5.0 °F 79% 29.57 in 10.0 mi NW 12.7 mph - N/A   Overcast
7:15 AM 10.4 °F -4.1 °F 5.0 °F 79% 29.57 in 10.0 mi NW 11.5 mph - N/A Snow Light Snow
7:35 AM 10.4 °F -6.0 °F 5.0 °F 79% 29.56 in 10.0 mi NW 15.0 mph - N/A   Overcast
7:55 AM 10.4 °F -1.5 °F 5.0 °F 79% 29.57 in 10.0 mi NNW 8.1 mph - N/A   Overcast
8:15 AM 10.4 °F -1.5 °F 5.0 °F 79% 29.57 in 10.0 mi NW 8.1 mph - N/A   Overcast
8:35 AM 10.4 °F -2.4 °F 5.0 °F 79% 29.57 in 10.0 mi NW 9.2 mph - N/A   Overcast
8:55 AM 10.4 °F -4.1 °F 5.0 °F 79% 29.57 in 10.0 mi NW 11.5 mph - N/A Snow Light Snow
9:15 AM 10.4 °F -4.1 °F 5.0 °F 79% 29.58 in 10.0 mi NW 11.5 mph - N/A Snow Light Snow
9:35 AM 10.4 °F -3.3 °F 5.0 °F 79% 29.57 in 10.0 mi NNW 10.4 mph - N/A Snow Light Snow
9:55 AM 8.6 °F -1.3 °F 5.0 °F 85% 29.59 in 10.0 mi NNW 5.8 mph - N/A   Overcast
10:15 AM 10.4 °F 0.8 °F 5.0 °F 79% 29.59 in 10.0 mi NW 5.8 mph - N/A   Overcast
10:35 AM 10.4 °F -0.4 °F 5.0 °F 79% 29.58 in 10.0 mi NNW 6.9 mph - N/A Snow Light Snow
10:55 AM 10.4 °F 2.2 °F 5.0 °F 79% 29.59 in 10.0 mi NNW 4.6 mph - N/A   Overcast
11:15 AM 14.0 °F 5.1 °F 5.0 °F 67% 29.58 in 10.0 mi WNW 5.8 mph - N/A   Overcast
11:35 AM 14.0 °F 6.5 °F 5.0 °F 67% 29.57 in 10.0 mi WNW 4.6 mph - N/A   Mostly Cloudy
11:55 AM 15.8 °F - 5.0 °F 62% 29.57 in 10.0 mi Calm Calm - N/A   Scattered Clouds
12:15 PM 17.6 °F - 6.8 °F 63% 29.55 in 10.0 mi Calm Calm - N/A   Partly Cloudy
12:35 PM 17.6 °F - 6.8 °F 63% 29.54 in 10.0 mi Calm Calm - N/A   Clear
12:55 PM 17.6 °F 10.7 °F 6.8 °F 63% 29.52 in 10.0 mi SE 4.6 mph - N/A   Clear
1:15 PM 15.8 °F 6.1 °F 6.8 °F 68% 29.51 in 10.0 mi ESE 6.9 mph - N/A   Clear
1:35 PM 15.8 °F 5.1 °F 6.8 °F 68% 29.50 in 10.0 mi ESE 8.1 mph - N/A   Clear
1:55 PM 14.0 °F 2.9 °F 6.8 °F 73% 29.50 in 10.0 mi SE 8.1 mph - N/A   Clear
2:15 PM 14.0 °F 6.5 °F 6.8 °F 73% 29.49 in 10.0 mi SE 4.6 mph - N/A   Clear
2:35 PM 14.0 °F 5.1 °F 6.8 °F 73% 29.50 in 10.0 mi SE 5.8 mph - N/A   Mostly Cloudy
2:55 PM 14.0 °F 5.1 °F 6.8 °F 73% 29.50 in 10.0 mi SE 5.8 mph - N/A   Mostly Cloudy
3:15 PM 14.0 °F 5.1 °F 8.6 °F 79% 29.50 in 10.0 mi ESE 5.8 mph - N/A   Overcast
3:35 PM 14.0 °F 1.2 °F 8.6 °F 79% 29.49 in 10.0 mi SE 10.4 mph - N/A   Overcast
3:55 PM 14.0 °F 2.0 °F 8.6 °F 79% 29.49 in 10.0 mi SE 9.2 mph - N/A   Mostly Cloudy
4:15 PM 14.0 °F 2.9 °F 8.6 °F 79% 29.50 in 10.0 mi SE 8.1 mph - N/A   Overcast
4:35 PM 14.0 °F 3.9 °F 8.6 °F 79% 29.50 in 10.0 mi SE 6.9 mph - N/A   Mostly Cloudy
4:55 PM 14.0 °F 3.9 °F 10.4 °F 86% 29.50 in 10.0 mi SE 6.9 mph - N/A   Mostly Cloudy
5:15 PM 15.8 °F 6.1 °F 10.4 °F 79% 29.51 in 10.0 mi SE 6.9 mph - N/A   Scattered Clouds
5:35 PM 15.8 °F 5.1 °F 10.4 °F 79% 29.51 in 10.0 mi SE 8.1 mph - N/A   Mostly Cloudy
5:55 PM 15.8 °F 4.2 °F 10.4 °F 79% 29.50 in 10.0 mi SSE 9.2 mph - N/A   Overcast
6:15 PM 15.8 °F 4.2 °F 10.4 °F 79% 29.50 in 10.0 mi SE 9.2 mph - N/A   Overcast
6:35 PM 15.8 °F 1.4 °F 10.4 °F 79% 29.47 in 10.0 mi SE 13.8 mph - N/A   Overcast
6:55 PM 15.8 °F 2.7 °F 10.4 °F 79% 29.50 in 10.0 mi ESE 11.5 mph - N/A   Overcast
7:15 PM 14.0 °F 0.5 °F 10.4 °F 86% 29.49 in 10.0 mi ESE 11.5 mph - N/A   Overcast
7:35 PM 14.0 °F -0.2 °F 8.6 °F 79% 29.49 in 10.0 mi ESE 12.7 mph - N/A   Overcast
7:55 PM 14.0 °F 1.2 °F 8.6 °F 79% 29.50 in 5.0 mi ESE 10.4 mph - N/A Snow Light Snow
8:15 PM 14.0 °F 2.0 °F 8.6 °F 79% 29.51 in 4.0 mi East 9.2 mph - N/A Snow Light Snow
8:35 PM 14.0 °F 1.2 °F 8.6 °F 79% 29.52 in 1.8 mi East 10.4 mph - 0.02 in Snow Light Snow
8:55 PM 12.2 °F -0.2 °F 8.6 °F 85% 29.53 in 2.0 mi East 9.2 mph - 0.06 in Snow Light Snow
9:15 PM 12.2 °F -0.2 °F 8.6 °F 85% 29.54 in 1.0 mi East 9.2 mph - 0.09 in Snow Light Snow
9:35 PM 12.2 °F 1.7 °F 8.6 °F 85% 29.54 in 1.2 mi ESE 6.9 mph - 0.22 in Snow Light Snow
9:55 PM 12.2 °F 4.3 °F 8.6 °F 85% 29.55 in 2.0 mi ESE 4.6 mph - 0.26 in Snow Light Snow
10:15 PM 12.2 °F 6.1 °F 8.6 °F 85% 29.56 in 4.0 mi SSE 3.5 mph - N/A Snow Light Snow
10:35 PM 12.2 °F 6.1 °F 8.6 °F 85% 29.57 in 7.0 mi SSW 3.5 mph - N/A Snow Light Snow
10:55 PM 12.2 °F 4.3 °F 8.6 °F 85% 29.58 in 10.0 mi SW 4.6 mph - N/A Snow Light Snow
11:15 PM 12.2 °F - 8.6 °F 85% 29.60 in 10.0 mi Calm Calm - N/A Snow Light Snow
11:35 PM 12.2 °F 4.3 °F 8.6 °F 85% 29.61 in 10.0 mi North 4.6 mph - N/A Snow Light Snow
11:55 PM 12.2 °F 2.9 °F 8.6 °F 85% 29.63 in 10.0 mi NNW 5.8 mph - N/A Snow Light Snow